Kosmos-2522

operational
NORAD ID: 42939 Int'l Des: 2017-055 Owner: VVKOV/IACG Country: RU Constellation: GLONASS
MEOCIRCULAR

Über Kosmos-2522

Beschreibung wird geladen...

Live-Position

3D-Globus wird geladen...

Nächste Überflüge

Höhenverlauf

Altitude vs Time

uPlot chart will show altitude changes over time

Zweizeiliger Elementsatz

1 42939U 17055A 25295.20865734 .00000024 00000-0 00000-0 0 9999
2 42939 64.0761 199.9830 0007850 233.7433 126.2411 2.13102006 62906
Epoch: 22. Okt. 2025 • Age: 99 hours

Aktueller Status

Höhe 19140.2 km
Geschwindigkeit 3.95 km/s
Subsatellitenpunkt -58.76°S, 9.98°W
Startdatum 22. Sept. 2017
Alter 8 years
Typ other

Technische Details

Klassifizierung Payload
Masse 1450.00 kg
Trockenmasse 1200.00 kg
Gesamtmasse 1450.00 kg
Länge 4.00 m
Durchmesser 1.50 m
Spannweite 7.80 m
Form Cyl + Ant + 2 Pan
Hersteller RESH
Bus-Typ Uragan
Phasenstatus In Orbit
Besitzer/Staat VVKOV/IACG/RU

Große Konstellationen

Loading constellations...